Tracking 30995 objects as of 5-Jul-2025
HD Live streaming from Space Station
objects crossing your sky now

USA 181

Track USA 181 now!
10-day predictions
USA 181 is classified as:


NORAD ID: 28537
Int'l Code: 2005-004A
Perigee: 721.5 km
Apogee: 1,502.6 km
Inclination: 63.4 °
Period: 107.4 minutes
Semi major axis: 7483 km
RCS: Unknown
Launch date: February 3, 2005
Source: United States (US)
Launch site: AIR FORCE EASTERN TEST RANGE (AFETR)
Your satellite tracking list
STARLINK-33735
Track 1 satellite(s)




NASA's NSSDC Master Catalog

Two Line Element Set (TLE):
1 28537U 05004A   25184.02294043 0.00000000  00000-0  00000-0 0    01
2 28537  63.4180 241.5846 0521910   3.5975 356.4464 13.41167351    00
Source of the keplerian elements: McCants